Showing default

RESURS P4, 59371

Orbit data source: Space-Track

RESURS P4, 59371 is a payload satellite owned by TsSKB-Progress (CIS) in SSO that was launched on Sun, 31 Mar 2024 UTC via a SOYUZ-2-1B launch vehicle from the Tyuratam Missile And Space Complex (TTMTR). Payload-class satellites include a variety of spacecraft equipped with specific instruments for various scientific and technological missions. These include communications satellites like Starlink; space stations such as the ISS; scientific satellites like the Hubble; Earth observation satellites from companies like Planet Labs, Umbra, and HawkEye 360; GPS; miniature CubeSats for education and research; and military/defense satellites.

Loading next visibility...
Identifier
59371, 2024-061A
Orbit
SSO
Country
Flag of CISCIS
Related business
Manufacturer
TSSKBP?
Mission
Operational Civil Imaging
Bus & Motor
RESURS P, Unknown motor
Mass
~6,000 kg wet, ~5,800 kg dry
Launch date (UTC)
2024-03-31 (2 years ago)
Launch vehicle
SOYUZ-2-1B
Launch site
Tyuratam Missile And Space Complex (TTMTR)
Object type
Payload
Rocket body
Debris
Shape & HBR
Cyl + 2 Pan, 6.5 m
Radar Cross Section
27.080 m², Large (>1 m²)

Expand to show TLE details & history
Last TLE update: 22 hours ago

TLE from 22 hours ago
0 RESURS P4
1 59371U 24061A   26172.50834079  .00002324  00000-0  77302-4 0  9996
2 59371  97.2751 120.3316 0002490 121.7094 238.4391 15.32151603124423
Epoch: 2026-06-21T12:12Z
TLE epoch observation values (Epoch: 2026-06-21T12:12:00.644Z)
Latitude
-0.00001°
Longitude
27.62131°
Altitude
473.398 km
Speed
7.629 km/s
True Right ascension
08h 01m 19s
True Declination
0° 00' 00"
Sunlit
Object was in daylight at epoch
Visualization orbit readout
Latitude
Unknown
Longitude
Unknown
Altitude
Unknown
Speed
Unknown
Apparent Right ascension
Unknown
Apparent Declination
Unknown
Sunlit
N/A
Visualization observer readout
Local Sidereal Time
21:30:01
Azimuth
Unknown
Elevation
Unknown
Doppler factor
Unknown
Orbital elements
Apogee altitude
468.042 km
Perigee altitude
464.634 km
Semi-major axis
6,844.475 km
Eccentricity
0.00025
Inclination
97.2751°
RAAN
120.3316°
Arg. of periapsis
121.7094°
True anomaly
238.41479°
Mean anomaly
238.4391°
Eccentric anomaly
238.42695°
Mean motion
3.83295 °/min
Orbital period
93.92 mins
BSTAR
0.000077302
Loading maneuver chart data...
Computing Atmospheric mass density...
Loading historical data...
Loading historical data...
Loading historical data...
Loading historical data...
Loading historical data...
Loading historical data...
Loading historical data...
Other satellites on launch #61 in the year 2024 (2024-03-31 UTC)

Documentation

Showing up to 5 results
|